Wind_Speed
19 19 17 14 12 14 12 12 13 13 14 14 14 14 14 14 14 14 16 17 19 21 23 24 24 25 26 27 27 28 28 27 27 26 26 25 24 23 22 22 21 21 21 22
20 18 15 14 15 15 14 13 12 13 13 13 12 12 12 12 12 14 15 17 19 21 22 23 25 25 26 26 27 28 28 28 27 27 26 25 24 23 22 20 19 19 20 20
19 16 15 16 17 16 15 14 13 12 12 12 11 10 10 9 10 12 14 16 18 20 21 23 24 25 25 26 27 28 29 29 28 27 26 25 25 24 22 20 18 18 18 18
19 18 17 18 17 16 15 14 12 11 11 10 9 9 9 10 10 11 13 15 17 19 21 22 24 24 25 26 27 28 29 29 29 28 27 26 25 24 23 20 18 17 16 16
20 20 19 18 17 16 15 12 10 9 9 8 8 8 10 10 10 11 13 15 16 18 20 22 23 24 25 26 27 28 29 30 29 29 28 27 26 25 24 22 20 18 17 16
21 20 19 18 17 15 13 11 9 7 6 6 7 8 10 10 11 12 13 14 16 18 20 22 23 24 25 26 27 28 29 29 29 29 29 28 28 26 25 23 21 20 18 16
21 20 19 18 16 14 12 10 8 4 4 7 10 11 11 10 11 11 12 14 15 17 19 21 22 23 24 26 27 28 29 29 29 29 29 29 29 28 26 25 22 21 19 17
16 16 17 16 15 14 12 11 10 8 7 9 11 12 9 8 9 10 11 13 15 17 18 20 21 23 24 25 26 28 29 29 30 30 30 30 29 29 28 26 24 22 20 18
12 14 16 15 15 14 12 11 11 10 9 8 8 11 8 8 9 9 11 12 14 16 17 19 20 22 23 25 26 27 29 30 30 30 30 30 30 29 29 28 26 24 21 19
15 15 16 15 15 14 13 12 11 10 10 7 6 11 9 6 8 9 10 12 13 15 16 18 19 21 23 24 26 27 28 29 30 31 31 31 30 30 29 29 27 25 22 20
18 14 14 14 14 13 13 12 12 11 10 9 9 12 8 8 8 9 10 11 13 14 15 17 19 20 22 24 25 27 28 29 30 31 31 31 31 31 30 29 28 27 24 22
20 14 10 11 12 13 13 13 13 12 12 11 11 10 8 8 8 8 9 11 12 13 15 16 18 20 21 23 25 26 27 28 30 30 31 31 32 31 31 30 29 28 26 24
23 19 12 10 11 12 13 13 13 12 12 11 11 10 8 8 8 8 9 10 11 13 14 16 18 19 21 22 24 25 27 28 29 30 31 31 31 31 31 31 30 29 28 25
22 21 17 13 13 13 13 13 13 13 13 12 11 10 9 8 8 8 8 10 11 12 14 15 17 19 20 22 23 25 26 27 28 29 30 30 30 31 31 31 31 30 28 26
20 20 19 16 16 15 14 14 14 13 13 13 12 11 10 9 8 8 9 10 11 12 14 15 17 18 19 21 22 24 25 26 27 28 29 29 30 30 31 30 30 30 29 27
19 18 19 17 17 17 15 14 14 14 14 13 12 12 11 10 10 9 10 10 11 13 14 16 17 18 19 20 21 23 24 25 26 27 28 28 29 29 29 30 29 30 29 27
17 17 18 17 16 16 15 14 14 14 14 13 13 13 12 12 11 11 11 11 12 13 14 16 17 18 19 20 21 22 23 25 26 26 27 27 27 28 28 29 29 29 29 28
16 17 17 16 15 15 14 13 14 14 14 14 14 13 13 13 13 12 12 12 13 14 15 16 17 18 19 20 21 22 23 24 25 25 26 26 26 27 27 27 28 28 28 27
16 16 16 16 16 15 14 13 14 14 14 14 14 14 14 14 14 13 13 14 14 15 16 17 18 19 19 20 21 22 23 23 24 25 25 25 25 26 26 26 26 26 26 26
15 16 16 16 16 15 16 12 14 15 15 14 15 15 15 15 15 14 14 15 15 16 17 18 18 19 20 20 21 21 22 23 24 24 24 24 24 24 24 25 25 25 24 24
15 16 16 16 17 18 16 13 15 16 15 14 15 15 15 15 16 15 16 16 16 17 18 18 19 20 20 21 21 22 22 23 23 24 24 24 24 24 24 24 24 24 23 23
16 17 17 18 19 19 16 16 17 16 15 16 16 16 16 16 16 17 17 17 18 18 19 20 20 21 21 21 22 22 23 23 24 24 24 24 24 23 23 23 23 23 22 22
18 18 19 20 20 18 17 17 18 18 18 18 18 17 17 18 18 18 18 19 19 20 20 21 21 21 21 22 22 23 23 24 24 24 24 24 24 24 23 23 23 22 22 21
20 20 20 20 20 19 19 19 19 20 19 19 19 19 19 19 20 20 20 21 21 21 22 22 22 22 22 23 23 24 24 24 25 25 25 25 25 24 24 23 23 22 22 21
22 21 21 21 21 20 20 20 21 21 21 21 21 21 21 22 22 22 22 23 23 23 23 23 23 24 24 24 24 25 26 26 26 26 26 26 26 25 25 24 24 23 23 22
23 23 23 23 23 23 22 22 22 23 23 23 23 23 23 23 24 24 24 24 24 25 25 25 25 25 26 26 26 27 27 28 28 28 28 27 27 27 26 26 25 25 24 23
Wind_Direction
240 242 245 248 253 257 264 276 286 294 301 309 315 322 327 334 341 347 349 352 353 354 354 354 354 353 352 352 352 351 349 347 346 344 341 337 332 326 320 313 304 296 288 280
237 239 241 244 252 256 262 270 275 282 293 303 310 318 323 334 340 345 349 352 354 355 355 355 355 354 354 354 354 354 353 351 350 349 347 343 339 334 328 321 311 303 293 282
235 237 235 238 247 255 261 268 273 280 290 298 306 317 321 337 340 344 348 351 353 355 356 356 356 356 356 357 357 356 356 355 354 352 350 348 346 343 338 331 323 314 303 291
228 230 233 238 245 253 256 263 274 283 289 296 307 317 322 332 339 344 348 350 353 355 356 357 357 358 358 359 359 359 359 359 357 356 355 353 351 349 346 340 333 324 315 302
222 226 233 239 246 251 254 264 272 281 290 297 309 316 316 326 335 344 348 350 352 355 357 358 359 359 360 0 0 0 0 360 359 359 358 356 354 353 351 347 342 335 326 315
221 226 233 238 244 248 254 258 261 273 295 317 305 307 304 324 336 339 343 347 350 354 357 359 0 1 2 2 2 1 1 1 1 1 1 360 359 357 355 353 348 342 334 324
223 228 234 240 244 245 247 248 248 265 323 314 292 296 296 322 327 332 338 344 349 353 355 358 360 1 2 3 3 4 4 4 4 4 4 3 2 1 359 356 351 348 342 333
229 239 240 240 241 243 241 241 239 224 210 247 276 287 299 314 318 326 334 341 347 351 354 357 360 2 3 4 4 5 6 6 6 7 6 5 4 4 2 359 356 354 351 345
212 237 243 240 238 240 238 236 239 240 237 244 280 289 290 303 312 321 332 339 345 350 354 358 1 4 5 5 5 6 7 7 8 8 7 7 6 5 5 3 2 0 358 355
198 226 238 241 238 239 240 239 236 235 232 222 253 280 291 303 310 320 330 338 345 350 354 359 2 3 5 5 6 7 7 7 8 8 8 8 8 7 7 7 6 5 3 1
200 219 238 241 240 240 237 236 235 239 240 235 230 258 284 298 305 317 328 337 344 349 354 357 359 1 3 5 5 6 7 8 8 8 8 9 9 9 9 9 9 8 6 3
201 209 234 246 240 241 241 238 234 234 234 239 248 259 272 286 298 313 324 334 341 347 352 355 357 359 0 2 4 6 7 8 8 9 9 10 10 11 11 12 12 11 10 8
206 208 212 241 249 242 240 236 236 238 240 243 251 263 265 277 292 307 319 330 338 344 348 351 354 356 359 1 3 5 6 7 8 8 9 11 12 13 14 14 14 14 14 14
211 210 208 223 241 243 239 235 234 237 238 240 246 257 267 275 289 302 314 325 334 341 345 348 352 354 357 359 2 3 5 6 7 8 9 11 12 13 13 14 14 14 16 17
212 212 213 224 241 245 244 241 238 237 239 242 247 255 264 273 284 296 307 318 328 335 340 344 347 350 353 356 359 1 3 5 5 6 8 10 11 12 13 14 15 16 17 18
215 217 220 226 235 241 244 241 238 237 240 242 247 254 262 270 279 290 301 312 321 329 335 339 342 345 349 352 355 358 360 1 3 4 6 8 10 11 12 13 14 15 16 17
222 224 227 232 238 240 242 239 238 238 241 243 247 254 262 269 276 285 295 304 313 322 329 333 338 341 344 347 350 353 355 357 359 1 3 5 7 8 10 12 13 14 16 18
225 227 231 236 239 243 240 238 239 240 242 244 249 255 263 269 275 282 290 298 307 316 322 328 332 336 339 342 345 348 351 353 356 358 0 2 3 5 6 9 11 12 14 16
231 232 235 237 240 245 244 238 239 243 245 246 250 257 263 269 273 280 288 295 303 311 318 323 327 331 334 337 340 343 346 349 351 354 356 358 360 1 3 4 7 9 11 13
235 236 238 239 243 247 244 239 241 245 248 247 252 258 263 268 274 279 285 292 300 307 313 318 322 326 329 332 334 337 341 343 346 348 350 353 355 357 359 0 2 5 7 9
235 238 240 242 245 247 246 243 244 247 250 251 255 259 264 269 275 280 286 292 298 303 309 313 317 320 324 327 329 331 334 337 340 343 345 347 349 351 353 355 357 360 2 4
241 240 242 244 245 247 246 244 246 251 254 255 258 262 266 270 275 280 286 291 296 300 305 309 312 315 318 321 324 327 329 332 334 337 339 341 343 345 347 349 351 353 356 357
244 243 245 246 248 249 248 247 249 252 255 258 261 264 267 271 275 280 285 289 293 297 300 304 307 311 314 317 319 322 325 327 329 331 333 335 337 339 340 342 344 346 348 349
245 243 246 248 249 248 248 249 251 254 257 260 262 264 267 271 276 280 284 288 291 294 298 301 304 307 310 313 315 318 320 321 323 325 327 329 330 332 333 334 336 338 340 341
245 245 245 247 248 248 249 251 253 255 258 261 263 266 269 272 276 280 283 287 290 293 296 299 302 305 307 310 312 314 315 317 317 319 320 322 323 325 327 327 328 329 331 333
248 248 247 247 248 250 250 253 255 257 260 262 265 268 270 273 276 279 282 285 288 291 294 296 299 302 304 307 309 311 312 313 313 314 315 316 317 319 320 321 321 321 322 323
Height
5886 5889 5890 5892 5893 5894 5894 5894 5894 5894 5892 5891 5890 5889 5887 5884 5882 5880 5877 5874 5870 5867 5863 5859 5854 5850 5845 5839 5834 5828 5822 5817 5811 5806 5801 5796 5791 5786 5782 5779 5776 5774 5772 5771
5882 5885 5888 5890 5890 5890 5892 5892 5892 5892 5891 5890 5889 5888 5886 5884 5882 5880 5877 5874 5870 5866 5862 5858 5854 5849 5844 5838 5833 5827 5821 5815 5809 5804 5798 5793 5788 5783 5778 5774 5771 5768 5766 5765
5878 5883 5884 5886 5887 5888 5890 5890 5890 5890 5890 5889 5888 5887 5885 5883 5882 5880 5877 5874 5870 5866 5862 5858 5853 5848 5843 5838 5832 5826 5820 5814 5808 5802 5796 5790 5785 5780 5775 5771 5767 5764 5761 5759
5875 5878 5881 5883 5885 5886 5887 5887 5888 5888 5888 5887 5887 5885 5884 5882 5880 5879 5876 5873 5870 5866 5862 5858 5853 5848 5842 5837 5831 5826 5820 5813 5807 5801 5795 5789 5784 5778 5773 5768 5764 5761 5757 5755
5872 5875 5877 5880 5882 5883 5884 5886 5886 5886 5886 5886 5885 5884 5884 5881 5879 5878 5875 5873 5870 5866 5862 5857 5853 5847 5842 5837 5831 5825 5819 5813 5807 5800 5794 5788 5782 5777 5771 5766 5762 5758 5754 5751
5868 5871 5874 5877 5879 5881 5882 5884 5884 5884 5884 5884 5884 5884 5883 5880 5878 5877 5875 5872 5869 5865 5861 5857 5852 5847 5842 5837 5831 5825 5819 5813 5806 5800 5794 5788 5781 5776 5770 5765 5760 5756 5751 5748
5865 5869 5871 5874 5876 5878 5880 5882 5882 5883 5883 5884 5883 5883 5882 5880 5878 5876 5874 5871 5868 5865 5861 5857 5852 5847 5842 5837 5831 5825 5819 5813 5807 5800 5794 5787 5781 5775 5769 5764 5758 5754 5749 5745
5864 5868 5870 5872 5874 5876 5877 5879 5881 5881 5882 5883 5881 5880 5880 5879 5877 5875 5873 5870 5868 5864 5860 5856 5852 5847 5842 5837 5832 5826 5820 5814 5807 5801 5794 5788 5781 5775 5769 5763 5757 5752 5747 5743
5864 5866 5867 5869 5871 5874 5875 5876 5877 5879 5879 5880 5880 5879 5878 5877 5876 5874 5872 5870 5867 5864 5860 5856 5852 5847 5842 5837 5832 5826 5820 5814 5808 5801 5795 5788 5782 5775 5769 5762 5756 5751 5746 5742
5860 5863 5864 5867 5869 5871 5873 5874 5875 5876 5877 5878 5880 5878 5875 5875 5874 5873 5871 5868 5866 5863 5859 5855 5851 5847 5843 5838 5832 5827 5821 5815 5809 5802 5796 5789 5782 5776 5769 5763 5757 5751 5746 5741
5858 5861 5863 5865 5867 5869 5870 5872 5873 5874 5875 5876 5876 5876 5874 5873 5872 5871 5869 5867 5865 5862 5859 5855 5851 5847 5843 5838 5833 5828 5822 5816 5810 5803 5797 5790 5783 5776 5770 5764 5757 5751 5746 5741
5856 5859 5861 5863 5865 5866 5868 5869 5870 5872 5872 5872 5873 5875 5872 5872 5871 5870 5868 5866 5864 5861 5858 5855 5851 5847 5843 5838 5833 5828 5823 5817 5811 5804 5798 5791 5784 5778 5771 5765 5759 5753 5747 5742
5853 5857 5860 5862 5864 5864 5865 5866 5867 5869 5870 5870 5871 5873 5870 5870 5869 5868 5867 5865 5863 5860 5857 5854 5851 5847 5843 5838 5834 5829 5823 5817 5812 5806 5799 5793 5786 5780 5773 5767 5761 5755 5749 5743
5851 5855 5858 5860 5860 5860 5862 5863 5865 5866 5867 5868 5868 5869 5868 5868 5867 5866 5865 5864 5862 5859 5856 5853 5850 5846 5842 5838 5834 5829 5824 5818 5813 5807 5801 5795 5789 5782 5776 5770 5764 5758 5752 5746
5849 5852 5854 5856 5857 5858 5859 5861 5862 5863 5865 5865 5866 5866 5866 5866 5866 5865 5863 5862 5860 5858 5855 5852 5849 5846 5842 5838 5834 5829 5824 5819 5813 5808 5802 5796 5791 5785 5779 5773 5767 5761 5755 5749
5846 5849 5851 5853 5854 5855 5857 5858 5859 5861 5862 5863 5863 5864 5864 5864 5863 5863 5861 5860 5858 5856 5854 5851 5848 5845 5841 5837 5833 5829 5824 5819 5814 5809 5803 5798 5792 5787 5781 5775 5770 5764 5758 5753
5844 5846 5848 5850 5851 5852 5854 5856 5857 5858 5859 5860 5861 5862 5861 5861 5861 5860 5859 5858 5856 5854 5852 5849 5846 5843 5840 5836 5832 5828 5824 5819 5814 5809 5804 5799 5794 5789 5783 5778 5772 5767 5761 5756
5841 5843 5845 5846 5849 5850 5853 5853 5854 5855 5856 5857 5858 5858 5858 5858 5858 5857 5856 5855 5854 5852 5850 5847 5845 5841 5838 5835 5831 5827 5823 5819 5814 5809 5805 5800 5795 5790 5785 5780 5775 5769 5764 5759
5839 5840 5842 5844 5845 5846 5848 5850 5851 5852 5853 5854 5854 5855 5855 5855 5855 5854 5853 5852 5851 5849 5847 5845 5842 5839 5836 5833 5829 5826 5822 5818 5814 5809 5805 5800 5795 5791 5786 5781 5776 5771 5767 5762
5836 5838 5839 5841 5842 5844 5845 5847 5847 5849 5849 5851 5851 5851 5852 5851 5852 5852 5850 5849 5848 5846 5844 5842 5840 5837 5834 5831 5827 5824 5820 5817 5813 5808 5804 5800 5795 5791 5786 5782 5777 5773 5768 5764
5833 5834 5836 5837 5838 5839 5841 5843 5844 5846 5847 5847 5847 5848 5848 5848 5848 5848 5846 5845 5844 5843 5841 5839 5837 5834 5831 5828 5825 5822 5818 5815 5811 5807 5803 5799 5794 5790 5786 5782 5778 5773 5769 5765
5830 5831 5833 5833 5835 5837 5838 5839 5840 5841 5842 5843 5843 5844 5844 5844 5843 5843 5842 5841 5840 5839 5837 5835 5833 5831 5828 5825 5822 5819 5816 5812 5808 5805 5801 5797 5793 5789 5785 5782 5778 5773 5769 5766
5826 5828 5828 5830 5832 5833 5833 5835 5836 5837 5838 5838 5839 5839 5840 5839 5839 5839 5838 5837 5836 5835 5833 5831 5829 5827 5824 5821 5819 5816 5812 5809 5806 5802 5799 5795 5791 5788 5784 5780 5777 5773 5769 5766
5821 5822 5824 5825 5826 5828 5829 5830 5831 5832 5833 5834 5834 5835 5835 5835 5834 5834 5833 5832 5831 5830 5828 5826 5824 5822 5820 5817 5814 5812 5808 5805 5802 5799 5795 5792 5789 5785 5782 5778 5775 5771 5768 5765
5816 5817 5819 5820 5821 5823 5824 5825 5826 5827 5828 5828 5829 5829 5829 5829 5829 5828 5828 5827 5826 5824 5823 5821 5819 5817 5815 5812 5810 5807 5804 5801 5797 5794 5791 5788 5785 5781 5778 5775 5772 5768 5765 5762
5811 5812 5813 5815 5816 5817 5819 5820 5821 5821 5822 5823 5823 5823 5823 5823 5823 5822 5822 5821 5820 5818 5817 5815 5813 5811 5809 5807 5804 5801 5798 5795 5792 5789 5786 5783 5780 5777 5774 5771 5768 5765 5762 5759